User: anonymous   Login
Location: Arthez
(43.0833°N, 0.2500°W)
Time: 18:47:28
(UTC+00:00)
Language:

ARGOS - Orbit

View from above orbital plane
View from above orbital plane
View from above satellite
View from above satellite

Ground track
Ground track

The orbit data is extracted from the following two-line orbital elements,

1 25634U 99008A   22020.66347392  .00000010  00000-0  24140-4 0  9998
2 25634  98.4031  42.4730 0010783  34.4730 325.7145 14.19414218186071
Epoch (UTC): 20 January 2022 15:55:24
Eccentricity: 0.0010783
inclination: 98.4031°
perigee height: 819 km
apogee height: 835 km
right ascension of ascending node: 42.4730°
argument of perigee: 34.4730°
revolutions per day: 14.19414218
mean anomaly at epoch: 325.7145°
orbit number at epoch: 18607

The dashed part of the orbit path shows where the satellite is in the earth's shadow,  

DLR